Location: B?ogocice
(50.2413°N, 20.2361°E)
Time: 00:45:46
(UTC+00:00)

AQUA - Pass Details

Date: 15 June 2024
Orbit: 693 x 696 km, 98.3° (Epoch: 18 July)

Event Time Altitude Azimuth Distance (km) Brightness Sun altitude
Rises 01:11:44 0° 15° (NNE) 3,087 8.7 -9.1°
Reaches altitude 10° 01:14:00 10° 18° (NNE) 2,164 7.7 -8.9°
Maximum altitude 01:18:44 73° 103° (ESE) 731 4.0 -8.5°
Drops below altitude 10° 01:23:26 10° 189° (S) 2,146 5.8 -8.0°
Enters shadow 01:24:09 - 190° (S) 2,438 6.1 -7.9°
